Regional Weather Roundup
Issued by NWS

Home | Current Version | Previous Version | Graphics & Text | Print | Product List | Glossary On
Versions: 1 2 3 4 5 6 7 8 9 10 11 12 13 14 15 16 17 18 19 20 21 22 23 24 25 26 27 28 29 30 31 32 33 34 35 36 37 38 39 40 41 42 43 44 45 46 47 48 49 50
000
ASUS44 KMEG 121510
RWRTN
TENNESSEE HOURLY STATE WEATHER ROUNDUP
NATIONAL WEATHER SERVICE MEMPHIS TN
900 AM CST FRI FEB 12 2016

TNZ002-004-019-021-049-052-054-088>092-121600-
WEST TENNESSEE

CITY           SKY/WX    TMP DP  RH WIND       PRES   REMARKS
MEMPHIS INTL   MOSUNNY   42  26  53 CALM      30.23R
NWS MEMPHIS      N/A     37 N/A N/A MISG        N/A
JACKSON        SUNNY     37  25  61 CALM      30.21R
UNION CITY     CLOUDY    30  21  69 N5        30.21R WCI  25
PARIS          CLOUDY    30  19  64 N5        30.19S WCI  25
LEXINGTON      MOSUNNY   37  21  52 NE3       30.18R
$$

TNZ008-025-027-028-033-062-065-066-121600-
NORTH MIDDLE TENNESSEE

CITY           SKY/WX    TMP DP  RH WIND       PRES   REMARKS
NASHVILLE      CLOUDY    36  22  56 NE3       30.19S
CLARKSVILLE    CLOUDY    30  25  81 N9        30.21R WCI  22
SMYRNA         CLOUDY    34  27  76 N5        30.20S WCI  30
COOKEVILLE     MOSUNNY   30  30 100 CALM      30.14F
CROSSVILLE     LGT SNOW  32  28  85 W7        30.12R FOG     WCI  26
$$

TNZ061-075-076-078-094-096-097-121600-
SOUTH MIDDLE TENNESSEE

CITY           SKY/WX    TMP DP  RH WIND       PRES   REMARKS
FAYETTEVILLE   SUNNY     41  27  56 CALM      30.14S
TULLAHOMA      PTSUNNY   36  27  69 N3        30.15R
WINCHESTER     CLOUDY    37  28  70 N3        30.14S
MCMINNVILLE    CLOUDY    34  28  80 N6        30.15R WCI  29
COLUMBIA       SUNNY     37  28  70 CALM      30.15S
SHELBYVILLE    CLOUDY    37  28  70 CALM      30.17S
$$

TNZ017-018-042-046-047-121600-
NORTHEAST TENNESSEE

CITY           SKY/WX    TMP DP  RH WIND       PRES   REMARKS
TRI CITIES     SNOW      27  24  89 CALM      30.12F VSB 1/2
$$

TNZ012-013-036-069-073-074-121600-
CENTRAL EAST TENNESSEE

CITY           SKY/WX    TMP DP  RH WIND       PRES   REMARKS
KNOXVILLE      LGT SNOW  30  28  92 CALM      30.15S FOG
OAK RIDGE      LGT SNOW  31  28  89 S5        30.17S FOG     WCI  26
GATLINBURG     CLOUDY    28  27  93 CALM      30.14F
MORRISTOWN     FOG       28  27  93 CALM      30.12F VSB 1
$$

TNZ083-085-099-121600-
SOUTHEAST TENNESSEE

CITY           SKY/WX    TMP DP  RH WIND       PRES   REMARKS
CHATTANOOGA    PTSUNNY   37  26  64 N6        30.17R WCI  32
$$

SKY/WX REPORTED AS FAIR MEANS FEW OR NO CLOUDS BELOW
12 THOUSAND FEET.




USA.gov is the U.S. government's official web portal to all federal, state and local government web resources and services.